Regional Weather Roundup
Issued by NWS

Home | Current Version | Previous Version | Graphics & Text | Print | Product List | Glossary Off
Versions: 1 2 3 4 5 6 7 8 9 10 11 12 13 14 15 16 17 18 19 20 21 22 23 24 25 26 27 28 29 30 31 32 33 34 35 36 37 38 39 40 41 42 43 44 45 46 47 48 49 50

000
ASUS43 KTOP 061259
RWRKS

WEATHER ROUNDUP FOR KANSAS
NATIONAL WEATHER SERVICE GOODLAND KS
700 AM CST TUE DEC 06 2016

NOTE:  "FAIR" INDICATES FEW OR NO CLOUDS BELOW 12,000 FEET WITH NO
SIGNIFICANT WEATHER AND/OR OBSTRUCTIONS TO VISIBILITY.

KSZ001>006-013>018-027>032-041>047-061400-
NORTHWEST KANSAS

CITY           SKY/WX    TMP DP  RH WIND       PRES   REMARKS
GOODLAND       CLOUDY     8   3  80 W9        30.02S
HAYS           CLEAR     23  14  68 NW8       30.06R
HILL CITY      CLEAR     21  10  62 NW13G20   30.06R WCI   9
RUSSELL        CLEAR     20  15  81 NW10      30.05R WCI   9
$$

KSZ061>065-074>080-084>089-061400-
SOUTHWEST KANSAS

CITY           SKY/WX    TMP DP  RH WIND       PRES   REMARKS
DODGE CITY     PTCLDY    21  14  74 N10       30.06R WCI  10
ELKHART          N/A     18   1  47 NW7         N/A
GARDEN CITY    CLOUDY    15   8  73 NW10      30.06R WCI   2
GREAT BEND     CLEAR     22  18  85 NW7       30.07R
LIBERAL        CLOUDY    21  10  63 NW10      30.08R WCI  10
$$

KSZ066>073-081>083-090>101-061400-
SOUTHEAST KANSAS

CITY           SKY/WX    TMP DP  RH WIND       PRES   REMARKS
CHANUTE        PTCLDY    34  27  75 N14       29.95R WCI  25
COFFEYVILLE    CLEAR     36  32  85 N12       29.96R WCI  28
HUTCHINSON     CLOUDY    28  17  63 N13       30.04  WCI  17
MEDICINE LODGE   N/A     28  17  63 N13       30.04R WCI  17
NEWTON         CLEAR     27  20  75 N16       30.02R WCI  15
PARSONS        CLOUDY    35  29  78 N18G24    29.95R WCI  24
WICHITA INTL   PTCLDY    30  21  69 N15       30.03R WCI  19
WICHITA JABRA  CLEAR     29  20  69 N17G24    30.01R WCI  17
WINFIELD       CLOUDY    32  22  66 N17       30.02R WCI  21
$$

KSZ007>012-019>026-033>040-048>060-102>105-061400-
NORTHEAST KANSAS

CITY           SKY/WX    TMP DP  RH WIND       PRES   REMARKS
CONCORDIA      CLEAR     24  16  71 NW10      30.05R WCI  14
EMPORIA        CLEAR     29  22  75 N14G23    29.99R WCI  18
LAWRENCE       CLEAR     31  22  69 NW15G24   29.98R WCI  20
MANHATTAN      CLEAR     29  15  56 N6        30.04R
OLATHE IND     CLOUDY    32  25  75 NW18G29   29.95R WCI  20
OLATHE EXE     CLOUDY    32  24  72 N17G33    29.94R WCI  21
SALINA         CLEAR     27  19  72 NW10      30.06R WCI  17
TOPEKA BILLARD PTCLDY    31  21  66 NW9       30.00R
TOPEKA FORBES  PTCLDY    31  22  69 N14       29.98R WCI  21
$$



USA.gov is the U.S. government's official web portal to all federal, state and local government web resources and services.